Tracking 18957 objects as of 23-Jan-2018
HD Live streaming from Space Station
objects crossing your sky now

FENGYUN 1C DEB

Track FENGYUN 1C DEB now!
10-day predictions


NORAD ID: 38135
Int'l Code: 1999-025EQG
Perigee: 663.3 km
Apogee: 1,009.8 km
Inclination: 99.0 °
Period: 101.5 minutes
Semi major axis: 7207 km
RCS: 0.0084 m2 (small)
Launch date: May 10, 1999
Source: People's Republic of China (PRC)
Launch site: Taiyaun Space Center, China (TSC)

Note: This is SATELLITE DEBRIS
aabbcc
Your satellite tracking list
Your tracking list is empty




NASA's NSSDC Master Catalog

Two Line Element Set (TLE):
1 38135U 99025EQG 18020.25562905  .00000236  00000-0  10249-3 0  9990
2 38135  98.9953  37.0450 0240416  81.2948 281.5377 14.18798024433909
Source of the keplerian elements: AFSPC